Date,TemperatureHighF,TemperatureAvgF,TemperatureLowF,DewpointHighF,DewpointAvgF,DewpointLowF,HumidityHigh,HumidityAvg,HumidityLow,PressureMaxIn,PressureMinIn,WindSpeedMaxMPH,WindSpeedAvgMPH,GustSpeedMaxMPH,PrecipitationSumIn
2013-1-1,27,16,3,-100,-100,-100,0,0,100,0.00,40.00,0,-999,0,0.00
2013-1-2,26,22,18,-100,-100,-100,0,0,100,0.00,40.00,0,-999,0,0.00
2013-1-3,32,16,2,-100,-100,-100,0,0,100,0.00,40.00,0,-999,0,0.00
2013-1-4,38,16,5,-100,-100,-100,0,0,100,0.00,40.00,0,-999,0,0.00
2013-1-5,36,22,10,-100,-100,-100,0,0,100,0.00,40.00,0,-999,0,0.00
2013-1-6,44,20,2,-100,-100,-100,0,0,100,0.00,40.00,0,-999,0,0.00
2013-1-7,47,30,18,-100,-100,-100,0,0,100,0.00,40.00,0,-999,0,0.00
2013-1-8,44,35,25,-100,-100,-100,0,0,100,0.00,40.00,0,-999,0,0.00
2013-1-9,56,41,31,-100,-100,-100,0,0,100,0.00,40.00,0,-999,0,0.00
2013-1-10,47,33,24,-100,-100,-100,0,0,100,0.00,40.00,0,-999,0,0.00
2013-1-11,27,17,3,-100,-100,-100,0,0,100,0.00,40.00,0,-999,0,0.00
2013-1-12,7,4,-1,-100,-100,-100,0,0,100,0.00,40.00,0,-999,0,0.00
2013-1-13,10,3,-3,-100,-100,-100,0,0,100,0.00,40.00,0,-999,0,0.00
2013-1-14,11,-1,-15,-100,-100,-100,0,0,100,0.00,40.00,0,-999,0,0.00
2013-1-15,25,12,-7,-100,-100,-100,0,0,100,0.00,40.00,0,-999,0,0.00
2013-1-16,40,28,21,-100,-100,-100,0,0,100,0.00,40.00,0,-999,0,0.00
2013-1-17,46,28,14,-100,-100,-100,0,0,100,0.00,40.00,0,-999,0,0.00
2013-1-18,48,37,22,-100,-100,-100,0,0,100,0.00,40.00,0,-999,0,0.00
2013-1-19,51,32,25,-100,-100,-100,0,0,100,0.00,40.00,0,-999,0,0.00
2013-1-20,32,22,9,-100,-100,-100,0,0,100,0.00,40.00,0,-999,0,0.00
2013-1-21,41,18,6,-100,-100,-100,0,0,100,0.00,40.00,0,-999,0,0.00
2013-1-22,51,28,10,-100,-100,-100,0,0,100,0.00,40.00,0,-999,0,0.00
2013-1-23,46,29,21,-100,-100,-100,0,0,100,0.00,40.00,0,-999,0,0.00
2013-1-24,58,33,15,-100,-100,-100,0,0,100,0.00,40.00,0,-999,0,0.00
2013-1-25,55,34,14,-100,-100,-100,0,0,100,0.00,40.00,0,-999,0,0.00
2013-1-26,55,36,18,-100,-100,-100,0,0,100,0.00,40.00,0,-999,0,0.00
2013-1-27,55,39,28,-100,-100,-100,0,0,100,0.00,40.00,0,-999,0,0.00
2013-1-28,30,26,22,-100,-100,-100,0,0,100,0.00,40.00,0,-999,0,0.00
2013-1-29,29,20,10,-100,-100,-100,0,0,100,0.00,40.00,0,-999,0,0.00
2013-1-30,33,13,3,-100,-100,-100,0,0,100,0.00,40.00,0,-999,0,0.00
2013-1-31,25,20,14,-100,-100,-100,0,0,100,0.00,40.00,0,-999,0,0.00
2013-2-1,43,28,15,-100,-100,-100,0,0,100,0.00,40.00,0,-999,0,0.00
2013-2-2,45,31,17,-100,-100,-100,0,0,100,0.00,40.00,0,-999,0,0.00
2013-2-3,51,27,10,-100,-100,-100,0,0,100,0.00,40.00,0,-999,0,0.00
2013-2-4,50,34,23,-100,-100,-100,0,0,100,0.00,40.00,0,-999,0,0.00
2013-2-5,51,36,21,-100,-100,-100,0,0,100,0.00,40.00,0,-999,0,0.00
2013-2-6,47,37,29,-100,-100,-100,0,0,100,0.00,40.00,0,-999,0,0.00
2013-2-7,47,30,18,-100,-100,-100,0,0,100,0.00,40.00,0,-999,0,0.00
2013-2-8,47,31,12,-100,-100,-100,0,0,100,0.00,40.00,0,-999,0,0.00
2013-2-9,29,24,17,-100,-100,-100,0,0,100,0.00,40.00,0,-999,0,0.00
2013-2-10,27,22,14,-100,-100,-100,0,0,100,0.00,40.00,0,-999,0,0.00
2013-2-11,29,18,10,-100,-100,-100,0,0,100,0.00,40.00,0,-999,0,0.00
2013-2-12,38,23,7,-100,-100,-100,0,0,100,0.00,40.00,0,-999,0,0.00
2013-2-13,43,31,17,-100,-100,-100,0,0,100,0.00,40.00,0,-999,0,0.00
2013-2-14,30,24,14,-100,-100,-100,0,0,100,0.00,40.00,0,-999,0,0.00
2013-2-15,26,19,13,-100,-100,-100,0,0,100,0.00,40.00,0,-999,0,0.00
2013-2-16,50,34,18,-100,-100,-100,0,0,100,0.00,40.00,0,-999,0,0.00
2013-2-17,56,36,16,-100,-100,-100,0,0,100,0.00,40.00,0,-999,0,0.00
2013-2-18,30,25,14,-100,-100,-100,0,0,100,0.00,40.00,0,-999,0,0.00
2013-2-19,38,21,3,-100,-100,-100,0,0,100,0.00,40.00,0,-999,0,0.00
2013-2-20,22,18,13,-100,-100,-100,0,0,100,0.00,40.00,0,-999,0,0.00
2013-2-21,21,17,13,-100,-100,-100,0,0,100,0.00,40.00,0,-999,0,0.00
2013-2-22,34,23,10,-100,-100,-100,0,0,100,0.00,40.00,0,-999,0,0.00
2013-2-23,45,32,14,-100,-100,-100,0,0,100,0.00,40.00,0,-999,0,0.00
2013-2-24,30,27,24,-100,-100,-100,0,0,100,0.00,40.00,0,-999,0,0.00
2013-2-25,36,22,7,-100,-100,-100,0,0,100,0.00,40.00,0,-999,0,0.00
2013-2-26,36,23,10,-100,-100,-100,0,0,100,0.00,40.00,0,-999,0,0.00
2013-2-27,34,24,18,-100,-100,-100,0,0,100,0.00,40.00,0,-999,0,0.00
2013-2-28,37,26,9,-100,-100,-100,0,0,100,0.00,40.00,0,-999,0,0.00
2013-3-1,40,32,20,-100,-100,-100,0,0,100,0.00,40.00,0,-999,0,0.00
2013-3-2,57,42,30,-100,-100,-100,0,0,100,0.00,40.00,0,-999,0,0.00
2013-3-3,58,42,29,-100,-100,-100,0,0,100,0.00,40.00,0,-999,0,0.00
2013-3-4,32,26,14,-100,-100,-100,0,0,100,0.00,40.00,0,-999,0,0.00
2013-3-5,41,22,10,-100,-100,-100,0,0,100,0.00,40.00,0,-999,0,0.00
2013-3-6,57,31,14,-100,-100,-100,0,0,100,0.00,40.00,0,-999,0,0.00
2013-3-7,64,38,15,-100,-100,-100,0,0,100,0.00,40.00,0,-999,0,0.00
2013-3-8,42,30,20,-100,-100,-100,0,0,100,0.00,40.00,0,-999,0,0.00
2013-3-9,35,30,23,-100,-100,-100,0,0,100,0.00,40.00,0,-999,0,0.00
2013-3-10,41,28,19,-100,-100,-100,0,0,100,0.00,40.00,0,-999,0,0.00
2013-3-11,39,31,21,-100,-100,-100,0,0,100,0.00,40.00,0,-999,0,0.00
2013-3-12,43,31,24,-100,-100,-100,0,0,100,0.00,40.00,0,-999,0,0.00
2013-3-13,62,38,18,-100,-100,-100,0,0,100,0.00,40.00,0,-999,0,0.00
2013-3-14,68,50,32,-100,-100,-100,0,0,100,0.00,40.00,0,-999,0,0.00
2013-3-15,69,52,36,-100,-100,-100,0,0,100,0.00,40.00,0,-999,0,0.00
2013-3-16,54,44,29,-100,-100,-100,0,0,100,0.00,40.00,0,-999,0,0.00
2013-3-17,52,32,24,-100,-100,-100,0,0,100,0.00,40.00,0,-999,0,0.00
2013-3-18,40,27,12,-100,-100,-100,0,0,100,0.00,40.00,0,-999,0,0.00
2013-3-19,38,30,18,-100,-100,-100,0,0,100,0.00,40.00,0,-999,0,0.00
2013-3-20,55,32,10,-100,-100,-100,0,0,100,0.00,40.00,0,-999,0,0.00
2013-3-21,50,34,22,-100,-100,-100,0,0,100,0.00,40.00,0,-999,0,0.00
2013-3-22,43,31,21,-100,-100,-100,0,0,100,0.00,40.00,0,-999,0,0.00
2013-3-23,28,19,13,-100,-100,-100,0,0,100,0.00,40.00,0,-999,0,0.00
2013-3-24,26,16,3,-100,-100,-100,0,0,100,0.00,40.00,0,-999,0,0.00
2013-3-25,38,21,3,-100,-100,-100,0,0,100,0.00,40.00,0,-999,0,0.00
2013-3-26,51,29,10,-100,-100,-100,0,0,100,0.00,40.00,0,-999,0,0.00
2013-3-27,54,41,29,-100,-100,-100,0,0,100,0.00,40.00,0,-999,0,0.00
2013-3-28,62,45,22,-100,-100,-100,0,0,100,0.00,40.00,0,-999,0,0.00
2013-3-29,68,46,27,-100,-100,-100,0,0,100,0.00,40.00,0,-999,0,0.00
2013-3-30,52,42,32,-100,-100,-100,0,0,100,0.00,40.00,0,-999,0,0.00
2013-3-31,62,40,18,-100,-100,-100,0,0,100,0.00,40.00,0,-999,0,0.00
2013-4-1,51,37,21,-100,-100,-100,0,0,100,0.00,40.00,0,-999,0,0.00
2013-4-2,54,40,22,-100,-100,-100,0,0,100,0.00,40.00,0,-999,0,0.00
2013-4-3,69,45,23,-100,-100,-100,0,0,100,0.00,40.00,0,-999,0,0.00
2013-4-4,64,49,36,-100,-100,-100,0,0,100,0.00,40.00,0,-999,0,0.00
2013-4-5,69,56,42,-100,-100,-100,0,0,100,0.00,40.00,0,-999,0,0.00
2013-4-6,63,50,31,-100,-100,-100,0,0,100,0.00,40.00,0,-999,0,0.00
2013-4-7,61,54,42,-100,-100,-100,0,0,100,0.00,40.00,0,-999,0,0.00
2013-4-8,57,41,18,-100,-100,-100,0,0,100,0.00,40.00,0,-999,0,0.00
2013-4-9,16,11,9,-100,-100,-100,0,0,100,0.00,40.00,0,-999,0,0.00
2013-4-10,21,14,8,-100,-100,-100,0,0,100,0.00,40.00,0,-999,0,0.00
2013-4-11,36,23,1,-100,-100,-100,0,0,100,0.00,40.00,0,-999,0,0.00
2013-4-12,40,32,28,-100,-100,-100,0,0,100,0.00,40.00,0,-999,0,0.00
2013-4-13,51,39,29,-100,-100,-100,0,0,100,0.00,40.00,0,-999,0,0.00
2013-4-14,42,34,29,-100,-100,-100,0,0,100,0.00,40.00,0,-999,0,0.00
2013-4-15,29,25,20,-100,-100,-100,0,0,100,0.00,40.00,0,-999,0,0.00
2013-4-16,26,24,21,-100,-100,-100,0,0,100,0.00,40.00,0,-999,0,0.00
2013-4-17,24,22,20,-100,-100,-100,0,0,100,0.00,40.00,0,-999,0,0.00
2013-4-18,26,20,10,-100,-100,-100,0,0,100,0.00,40.00,0,-999,0,0.00
2013-4-19,49,31,19,-100,-100,-100,0,0,100,0.00,40.00,0,-999,0,0.00
2013-4-20,54,44,32,-100,-100,-100,0,0,100,0.00,40.00,0,-999,0,0.00
2013-4-21,57,45,33,-100,-100,-100,0,0,100,0.00,40.00,0,-999,0,0.00
2013-4-22,40,29,20,-100,-100,-100,0,0,100,0.00,40.00,0,-999,0,0.00
2013-4-23,39,28,20,-100,-100,-100,0,0,100,0.00,40.00,0,-999,0,0.00
2013-4-24,47,34,18,-100,-100,-100,0,0,100,0.00,40.00,0,-999,0,0.00
2013-4-25,65,47,25,-100,-100,-100,0,0,100,0.00,40.00,0,-999,0,0.00
2013-4-26,70,50,29,-100,-100,-100,0,0,100,0.00,40.00,0,-999,0,0.00
2013-4-27,73,55,38,-100,-100,-100,0,0,100,0.00,40.00,0,-999,0,0.00
2013-4-28,71,56,40,-100,-100,-100,0,0,100,0.00,40.00,0,-999,0,0.00
2013-4-29,74,56,36,-100,-100,-100,0,0,100,0.00,40.00,0,-999,0,0.00
2013-4-30,63,43,30,-100,-100,-100,0,0,100,0.00,40.00,0,-999,0,0.00
2013-5-1,32,28,24,-100,-100,-100,0,0,100,0.00,40.00,0,-999,0,0.00
2013-5-2,43,31,21,-100,-100,-100,0,0,100,0.00,40.00,0,-999,0,0.00
2013-5-3,58,43,26,-100,-100,-100,0,0,100,0.00,40.00,0,-999,0,0.00
2013-5-4,54,42,29,-100,-100,-100,0,0,100,0.00,40.00,0,-999,0,0.00
2013-5-5,58,44,26,-100,-100,-100,0,0,100,0.00,40.00,0,-999,0,0.00
2013-5-6,66,52,34,-100,-100,-100,0,0,100,0.00,40.00,0,-999,0,0.00
2013-5-7,69,53,40,-100,-100,-100,0,0,100,0.00,40.00,0,-999,0,0.00
2013-5-8,68,52,42,-100,-100,-100,0,0,100,0.00,40.00,0,-999,0,0.00
2013-5-9,62,50,36,-100,-100,-100,0,0,100,0.00,40.00,0,-999,0,0.00
2013-5-10,69,54,38,-100,-100,-100,0,0,100,0.00,40.00,0,-999,0,0.00
2013-5-11,67,54,46,-100,-100,-100,0,0,100,0.00,40.00,0,-999,0,0.00
2013-5-12,78,60,39,-100,-100,-100,0,0,100,0.00,40.00,0,-999,0,0.00
2013-5-13,90,68,43,-100,-100,-100,0,0,100,0.00,40.00,0,-999,0,0.00
2013-5-14,87,72,53,-100,-100,-100,0,0,100,0.00,40.00,0,-999,0,0.00
2013-5-15,75,65,56,-100,-100,-100,0,0,100,0.00,40.00,0,-999,0,0.00
2013-5-16,79,62,51,-100,-100,-100,0,0,100,0.00,40.00,0,-999,0,0.00
2013-5-17,90,69,49,-100,-100,-100,0,0,100,0.00,40.00,0,-999,0,0.00
2013-5-18,76,64,51,-100,-100,-100,0,0,100,0.00,40.00,0,-999,0,0.00
2013-5-19,62,51,47,-100,-100,-100,0,0,100,0.00,40.00,0,-999,0,0.00
2013-5-20,48,46,44,-100,-100,-100,0,0,100,0.00,40.00,0,-999,0,0.00
2013-5-21,58,50,41,-100,-100,-100,0,0,100,0.00,40.00,0,-999,0,0.00
2013-5-22,62,49,37,-100,-100,-100,0,0,100,0.00,40.00,0,-999,0,0.00
2013-5-23,58,51,43,-100,-100,-100,0,0,100,0.00,40.00,0,-999,0,0.00
2013-5-24,80,66,54,-100,-100,-100,0,0,100,0.00,40.00,0,-999,0,0.00
2013-5-25,79,65,54,-100,-100,-100,0,0,100,0.00,40.00,0,-999,0,0.00
2013-5-26,75,64,53,-100,-100,-100,0,0,100,0.00,40.00,0,-999,0,0.00
2013-5-27,76,64,54,-100,-100,-100,0,0,100,0.00,40.00,0,-999,0,0.00
2013-5-28,74,58,43,-100,-100,-100,0,0,100,0.00,40.00,0,-999,0,0.00
2013-5-29,60,54,47,-100,-100,-100,0,0,100,0.00,40.00,0,-999,0,0.00
2013-5-30,63,54,45,-100,-100,-100,0,0,100,0.00,40.00,0,-999,0,0.00
2013-5-31,58,49,40,-100,-100,-100,0,0,100,0.00,40.00,0,-999,0,0.00
2013-6-1,63,51,43,-100,-100,-100,0,0,100,0.00,40.00,0,-999,0,0.00
2013-6-2,78,60,38,-100,-100,-100,0,0,100,0.00,40.00,0,-999,0,0.00
2013-6-3,84,64,46,-100,-100,-100,0,0,100,0.00,40.00,0,-999,0,0.00
2013-6-4,67,56,46,-100,-100,-100,0,0,100,0.00,40.00,0,-999,0,0.00
2013-6-5,64,54,45,-100,-100,-100,0,0,100,0.00,40.00,0,-999,0,0.00
2013-6-6,73,58,40,-100,-100,-100,0,0,100,0.00,40.00,0,-999,0,0.00
2013-6-7,82,59,45,-100,-100,-100,0,0,100,0.00,40.00,0,-999,0,0.00
2013-6-8,69,60,51,-100,-100,-100,0,0,100,0.00,40.00,0,-999,0,0.00
2013-6-9,79,61,47,-100,-100,-100,0,0,100,0.00,40.00,0,-999,0,0.00
2013-6-10,93,71,53,-100,-100,-100,0,0,100,0.00,40.00,0,-999,0,0.00
2013-6-11,89,73,58,-100,-100,-100,0,0,100,0.00,40.00,0,-999,0,0.00
2013-6-12,83,65,55,-100,-100,-100,0,0,100,0.00,40.00,0,-999,0,0.00
2013-6-13,81,61,48,-100,-100,-100,0,0,100,0.00,40.00,0,-999,0,0.00
2013-6-14,89,72,62,-100,-100,-100,0,0,100,0.00,40.00,0,-999,0,0.00
2013-6-15,76,64,53,-100,-100,-100,0,0,100,0.00,40.00,0,-999,0,0.00
2013-6-16,85,69,54,-100,-100,-100,0,0,100,0.00,40.00,0,-999,0,0.00
2013-6-17,77,65,51,-100,-100,-100,0,0,100,0.00,40.00,0,-999,0,0.00
2013-6-18,77,61,51,-100,-100,-100,0,0,100,0.00,40.00,0,-999,0,0.00
2013-6-19,86,69,52,-100,-100,-100,0,0,100,0.00,40.00,0,-999,0,0.00
2013-6-20,76,68,59,-100,-100,-100,0,0,100,0.00,40.00,0,-999,0,0.00
2013-6-22,75,66,55,-100,-100,-100,0,0,100,0.00,40.00,0,-999,0,0.00
2013-6-23,73,62,47,-100,-100,-100,0,0,100,0.00,40.00,0,-999,0,0.00
2013-6-24,89,77,66,-100,-100,-100,0,0,100,0.00,40.00,0,-999,0,0.00
2013-6-25,83,72,63,-100,-100,-100,0,0,100,0.00,40.00,0,-999,0,0.00
2013-6-26,93,77,52,-100,-100,-100,0,0,100,0.00,40.00,0,-999,0,0.00
2013-6-27,94,76,57,-100,-100,-100,0,0,100,0.00,40.00,0,-999,0,0.00
2013-6-28,86,73,62,-100,-100,-100,0,0,100,0.00,40.00,0,-999,0,0.00
2013-6-29,83,71,62,-100,-100,-100,0,0,100,0.00,40.00,0,-999,0,0.00
2013-6-30,80,67,57,-100,-100,-100,0,0,100,0.00,40.00,0,-999,0,0.00
2013-7-1,76,65,56,-100,-100,-100,0,0,100,0.00,40.00,0,-999,0,0.00
2013-7-2,80,65,51,-100,-100,-100,0,0,100,0.00,40.00,0,-999,0,0.00
2013-7-3,84,66,53,-100,-100,-100,0,0,100,0.00,40.00,0,-999,0,0.00
2013-7-4,89,73,55,-100,-100,-100,0,0,100,0.00,40.00,0,-999,0,0.00
2013-7-5,82,70,61,-100,-100,-100,0,0,100,0.00,40.00,0,-999,0,0.00
2013-7-6,90,73,61,-100,-100,-100,0,0,100,0.00,40.00,0,-999,0,0.00
2013-7-7,83,68,59,-100,-100,-100,0,0,100,0.00,40.00,0,-999,0,0.00
2013-7-8,87,69,59,-100,-100,-100,0,0,100,0.00,40.00,0,-999,0,0.00
2013-7-9,91,74,57,-100,-100,-100,0,0,100,0.00,40.00,0,-999,0,0.00
2013-7-10,82,70,59,-100,-100,-100,0,0,100,0.00,40.00,0,-999,0,0.00
2013-7-11,88,68,58,-100,-100,-100,0,0,100,0.00,40.00,0,-999,0,0.00
2013-7-12,91,75,65,-100,-100,-100,0,0,100,0.00,40.00,0,-999,0,0.00
2013-7-13,94,70,59,-100,-100,-100,0,0,100,0.00,40.00,0,-999,0,0.00
2013-7-14,72,65,60,-100,-100,-100,0,0,100,0.00,40.00,0,-999,0,0.00
2013-7-15,80,68,60,-100,-100,-100,0,0,100,0.00,40.00,0,-999,0,0.00
2013-7-16,83,71,54,-100,-100,-100,0,0,100,0.00,40.00,0,-999,0,0.00
2013-7-17,87,72,56,-100,-100,-100,0,0,100,0.00,40.00,0,-999,0,0.00
2013-7-18,94,78,59,-100,-100,-100,0,0,100,0.00,40.00,0,-999,0,0.00
2013-7-19,80,75,62,-100,-100,-100,0,0,100,0.00,40.00,0,-999,0,0.00
2013-7-20,80,65,56,-100,-100,-100,0,0,100,0.00,40.00,0,-999,0,0.00
2013-7-21,87,70,56,-100,-100,-100,0,0,100,0.00,40.00,0,-999,0,0.00
2013-7-22,83,75,64,-100,-100,-100,0,0,100,0.00,40.00,0,-999,0,0.00
2013-7-23,83,70,61,-100,-100,-100,0,0,100,0.00,40.00,0,-999,0,0.00
2013-7-24,81,67,58,-100,-100,-100,0,0,100,0.00,40.00,0,-999,0,0.00
2013-7-25,76,63,57,-100,-100,-100,0,0,100,0.00,40.00,0,-999,0,0.00
2013-7-26,80,68,54,-100,-100,-100,0,0,100,0.00,40.00,0,-999,0,0.00
2013-7-27,63,58,52,-100,-100,-100,0,0,100,0.00,40.00,0,-999,0,0.00
2013-7-28,70,60,54,-100,-100,-100,0,0,100,0.00,40.00,0,-999,0,0.00
2013-7-29,73,62,54,-100,-100,-100,0,0,100,0.00,40.00,0,-999,0,0.00
2013-7-30,83,67,55,-100,-100,-100,0,0,100,0.00,40.00,0,-999,0,0.00
2013-7-31,80,62,52,-100,-100,-100,0,0,100,0.00,40.00,0,-999,0,0.00
2013-8-1,84,70,65,-100,-100,-100,0,0,100,0.00,40.00,0,-999,0,0.00
2013-8-2,76,64,54,-100,-100,-100,0,0,100,0.00,40.00,0,-999,0,0.00
2013-8-3,65,64,62,-100,-100,-100,0,0,100,0.00,40.00,0,-999,0,0.00
2013-8-4,90,70,54,-100,-100,-100,0,0,100,0.00,40.00,0,-999,0,0.00
2013-8-5,80,67,58,-100,-100,-100,0,0,100,0.00,40.00,0,-999,0,0.00
2013-8-6,82,68,58,-100,-100,-100,0,0,100,0.00,40.00,0,-999,0,0.00
2013-8-7,76,64,53,-100,-100,-100,0,0,100,0.00,40.00,0,-999,0,0.00
2013-8-8,76,64,53,-100,-100,-100,0,0,100,0.00,40.00,0,-999,0,0.00
2013-8-9,85,68,52,-100,-100,-100,0,0,100,0.00,40.00,0,-999,0,0.00
2013-8-10,81,65,59,-100,-100,-100,0,0,100,0.00,40.00,0,-999,0,0.00
2013-8-11,77,68,56,-100,-100,-100,0,0,100,0.00,40.00,0,-999,0,0.00
2013-8-12,79,62,51,-100,-100,-100,0,0,100,0.00,40.00,0,-999,0,0.00
2013-8-13,78,63,48,-100,-100,-100,0,0,100,0.00,40.00,0,-999,0,0.00
2013-8-14,87,64,50,-100,-100,-100,0,0,100,0.00,40.00,0,-999,0,0.00
2013-8-15,84,69,56,-100,-100,-100,0,0,100,0.00,40.00,0,-999,0,0.00
2013-8-16,82,64,54,-100,-100,-100,0,0,100,0.00,40.00,0,-999,0,0.00
2013-8-17,86,65,56,-100,-100,-100,0,0,100,0.00,40.00,0,-999,0,0.00
2013-8-18,87,69,58,-100,-100,-100,0,0,100,0.00,40.00,0,-999,0,0.00
2013-8-19,87,71,56,-100,-100,-100,0,0,100,0.00,40.00,0,-999,0,0.00
2013-8-20,101,82,70,-100,-100,-100,0,0,100,0.00,40.00,0,-999,0,0.00
2013-8-21,83,71,65,-100,-100,-100,0,0,100,0.00,40.00,0,-999,0,0.00
2013-8-22,80,69,58,-100,-100,-100,0,0,100,0.00,40.00,0,-999,0,0.00
2013-8-23,88,72,59,-100,-100,-100,0,0,100,0.00,40.00,0,-999,0,0.00
2013-8-24,95,72,56,-100,-100,-100,0,0,100,0.00,40.00,0,-999,0,0.00
2013-8-25,90,73,60,-100,-100,-100,0,0,100,0.00,40.00,0,-999,0,0.00
2013-8-26,75,65,58,-100,-100,-100,0,0,100,0.00,40.00,0,-999,0,0.00
2013-8-27,87,72,62,-100,-100,-100,0,0,100,0.00,40.00,0,-999,0,0.00
2013-8-28,87,76,72,-100,-100,-100,0,0,100,0.00,40.00,0,-999,0,0.00
2013-8-29,91,73,57,-100,-100,-100,0,0,100,0.00,40.00,0,-999,0,0.00
2013-8-30,87,68,61,-100,-100,-100,0,0,100,0.00,40.00,0,-999,0,0.00
2013-8-31,84,67,59,-100,-100,-100,0,0,100,0.00,40.00,0,-999,0,0.00
2013-9-1,80,65,52,-100,-100,-100,0,0,100,0.00,40.00,0,-999,0,0.00
2013-9-2,91,70,52,-100,-100,-100,0,0,100,0.00,40.00,0,-999,0,0.00
2013-9-3,91,73,63,-100,-100,-100,0,0,100,0.00,40.00,0,-999,0,0.00
2013-9-4,91,73,58,-100,-100,-100,0,0,100,0.00,40.00,0,-999,0,0.00
2013-9-5,87,69,59,-100,-100,-100,0,0,100,0.00,40.00,0,-999,0,0.00
2013-9-6,94,78,63,-100,-100,-100,0,0,100,0.00,40.00,0,-999,0,0.00
2013-9-7,87,71,63,-100,-100,-100,0,0,100,0.00,40.00,0,-999,0,0.00
2013-9-8,83,64,56,-100,-100,-100,0,0,100,0.00,40.00,0,-999,0,0.00
2013-9-9,76,65,58,-100,-100,-100,0,0,100,0.00,40.00,0,-999,0,0.00
2013-9-10,71,62,57,-100,-100,-100,0,0,100,0.00,40.00,0,-999,0,0.00
2013-9-11,63,60,58,-100,-100,-100,0,0,100,0.00,40.00,0,-999,0,0.00
2013-9-12,69,60,56,-100,-100,-100,0,0,100,0.00,40.00,0,-999,0,0.00
2013-9-13,59,56,52,-100,-100,-100,0,0,100,0.00,40.00,0,-999,0,0.00
2013-9-14,75,61,52,-100,-100,-100,0,0,100,0.00,40.00,0,-999,0,0.00
2013-9-15,61,57,51,-100,-100,-100,0,0,100,0.00,40.00,0,-999,0,0.00
2013-9-16,65,56,50,-100,-100,-100,0,0,100,0.00,40.00,0,-999,0,0.00
2013-9-17,80,64,51,-100,-100,-100,0,0,100,0.00,40.00,0,-999,0,0.00
2013-9-18,67,63,59,-100,-100,-100,0,0,100,0.00,40.00,0,-999,0,0.00
2013-9-19,65,57,48,-100,-100,-100,0,0,100,0.00,40.00,0,-999,0,0.00
2013-9-20,68,50,37,-100,-100,-100,0,0,100,0.00,40.00,0,-999,0,0.00
2013-9-21,86,72,47,-100,-100,-100,0,0,100,0.00,40.00,0,-999,0,0.00
2013-9-22,80,62,48,-100,-100,-100,0,0,100,0.00,40.00,0,-999,0,0.00
2013-9-23,58,52,45,-100,-100,-100,0,0,100,0.00,40.00,0,-999,0,0.00
2013-9-24,73,54,37,-100,-100,-100,0,0,100,0.00,40.00,0,-999,0,0.00
2013-9-25,73,56,43,-100,-100,-100,0,0,100,0.00,40.00,0,-999,0,0.00
2013-9-26,69,54,43,-100,-100,-100,0,0,100,0.00,40.00,0,-999,0,0.00
2013-9-27,50,42,39,-100,-100,-100,0,0,100,0.00,40.00,0,-999,0,0.00
2013-9-28,59,42,32,-100,-100,-100,0,0,100,0.00,40.00,0,-999,0,0.00
2013-9-29,73,53,38,-100,-100,-100,0,0,100,0.00,40.00,0,-999,0,0.00
2013-9-30,76,62,47,-100,-100,-100,0,0,100,0.00,40.00,0,-999,0,0.00
2013-10-1,68,60,53,-100,-100,-100,0,0,100,0.00,40.00,0,-999,0,0.00
2013-10-2,62,48,39,-100,-100,-100,0,0,100,0.00,40.00,0,-999,0,0.00
2013-10-3,50,46,39,-100,-100,-100,0,0,100,0.00,40.00,0,-999,0,0.00
2013-10-4,42,31,29,-100,-100,-100,0,0,100,0.00,40.00,0,-999,0,0.00
2013-10-5,34,30,29,-100,-100,-100,0,0,100,0.00,40.00,0,-999,0,0.00
2013-10-6,59,42,32,-100,-100,-100,0,0,100,0.00,40.00,0,-999,0,0.00
2013-10-7,69,44,29,-100,-100,-100,0,0,100,0.00,40.00,0,-999,0,0.00
2013-10-8,80,53,37,-100,-100,-100,0,0,100,0.00,40.00,0,-999,0,0.00
2013-10-9,57,49,39,-100,-100,-100,0,0,100,0.00,40.00,0,-999,0,0.00
2013-10-10,52,43,33,-100,-100,-100,0,0,100,0.00,40.00,0,-999,0,0.00
2013-10-11,47,44,40,-100,-100,-100,0,0,100,0.00,40.00,0,-999,0,0.00
2013-10-12,54,41,29,-100,-100,-100,0,0,100,0.00,40.00,0,-999,0,0.00
2013-10-13,62,47,38,-100,-100,-100,0,0,100,0.00,40.00,0,-999,0,0.00
2013-10-14,48,40,33,-100,-100,-100,0,0,100,0.00,40.00,0,-999,0,0.00
2013-10-15,36,34,32,-100,-100,-100,0,0,100,0.00,40.00,0,-999,0,0.00
2013-10-16,51,36,25,-100,-100,-100,0,0,100,0.00,40.00,0,-999,0,0.00
2013-10-17,41,35,30,-100,-100,-100,0,0,100,0.00,40.00,0,-999,0,0.00
2013-10-18,40,32,27,-100,-100,-100,0,0,100,0.00,40.00,0,-999,0,0.00
2013-10-19,56,38,26,-100,-100,-100,0,0,100,0.00,40.00,0,-999,0,0.00
2013-10-20,47,40,34,-100,-100,-100,0,0,100,0.00,40.00,0,-999,0,0.00
2013-10-21,53,38,28,-100,-100,-100,0,0,100,0.00,40.00,0,-999,0,0.00
2013-10-22,61,49,38,-100,-100,-100,0,0,100,0.00,40.00,0,-999,0,0.00
2013-10-23,59,42,30,-100,-100,-100,0,0,100,0.00,40.00,0,-999,0,0.00
2013-10-24,51,36,27,-100,-100,-100,0,0,100,0.00,40.00,0,-999,0,0.00
2013-10-25,64,41,28,-100,-100,-100,0,0,100,0.00,40.00,0,-999,0,0.00
2013-10-26,63,43,29,-100,-100,-100,0,0,100,0.00,40.00,0,-999,0,0.00
2013-10-27,65,39,27,-100,-100,-100,0,0,100,0.00,40.00,0,-999,0,0.00
2013-10-28,41,29,26,-100,-100,-100,0,0,100,0.00,40.00,0,-999,0,0.00
2013-10-29,32,30,27,-100,-100,-100,0,0,100,0.00,40.00,0,-999,0,0.00
2013-10-30,47,34,30,-100,-100,-100,0,0,100,0.00,40.00,0,-999,0,0.00
2013-10-31,48,39,29,-100,-100,-100,0,0,100,0.00,40.00,0,-999,0,0.00
2013-11-1,47,37,29,-100,-100,-100,0,0,100,0.00,40.00,0,-999,0,0.00
2013-11-2,59,40,20,-100,-100,-100,0,0,100,0.00,40.00,0,-999,0,0.00
2013-11-3,59,40,27,-100,-100,-100,0,0,100,0.00,40.00,0,-999,0,0.00
2013-11-4,41,33,25,-100,-100,-100,0,0,100,0.00,40.00,0,-999,0,0.00
2013-11-5,32,28,21,-100,-100,-100,0,0,100,0.00,40.00,0,-999,0,0.00
2013-11-6,43,32,17,-100,-100,-100,0,0,100,0.00,40.00,0,-999,0,0.00
2013-11-7,50,36,23,-100,-100,-100,0,0,100,0.00,40.00,0,-999,0,0.00
2013-11-8,58,46,27,-100,-100,-100,0,0,100,0.00,40.00,0,-999,0,0.00
2013-11-9,51,37,28,-100,-100,-100,0,0,100,0.00,40.00,0,-999,0,0.00
2013-11-10,59,39,23,-100,-100,-100,0,0,100,0.00,40.00,0,-999,0,0.00
2013-11-11,29,26,25,-100,-100,-100,0,0,100,0.00,40.00,0,-999,0,0.00
2013-11-12,40,27,19,-100,-100,-100,0,0,100,0.00,40.00,0,-999,0,0.00
2013-11-13,51,36,26,-100,-100,-100,0,0,100,0.00,40.00,0,-999,0,0.00
2013-11-14,54,44,33,-100,-100,-100,0,0,100,0.00,40.00,0,-999,0,0.00
2013-11-15,54,38,30,-100,-100,-100,0,0,100,0.00,40.00,0,-999,0,0.00
2013-11-16,46,40,32,-100,-100,-100,0,0,100,0.00,40.00,0,-999,0,0.00
2013-11-17,43,36,29,-100,-100,-100,0,0,100,0.00,40.00,0,-999,0,0.00
2013-11-18,58,39,20,-100,-100,-100,0,0,100,0.00,40.00,0,-999,0,0.00
2013-11-19,56,48,30,-100,-100,-100,0,0,100,0.00,40.00,0,-999,0,0.00
2013-11-20,57,41,18,-100,-100,-100,0,0,100,0.00,40.00,0,-999,0,0.00
2013-11-21,17,12,7,-100,-100,-100,0,0,100,0.00,40.00,0,-999,0,0.00
2013-11-22,18,4,-8,-100,-100,-100,0,0,100,0.00,40.00,0,-999,0,0.00
2013-11-23,24,10,1,-100,-100,-100,0,0,100,0.00,40.00,0,-999,0,0.00
2013-11-24,32,21,10,-100,-100,-100,0,0,100,0.00,40.00,0,-999,0,0.00
2013-11-25,40,30,23,-100,-100,-100,0,0,100,0.00,40.00,0,-999,0,0.00
2013-11-26,40,27,18,-100,-100,-100,0,0,100,0.00,40.00,0,-999,0,0.00
2013-11-27,54,29,16,-100,-100,-100,0,0,100,0.00,40.00,0,-999,0,0.00
2013-11-28,40,27,21,-100,-100,-100,0,0,100,0.00,40.00,0,-999,0,0.00
2013-11-29,52,31,21,-100,-100,-100,0,0,100,0.00,40.00,0,-999,0,0.00
2013-11-30,51,34,23,-100,-100,-100,0,0,100,0.00,40.00,0,-999,0,0.00
2013-12-1,49,33,21,-100,-100,-100,0,0,100,0.00,40.00,0,-999,0,0.00
2013-12-2,54,48,42,-100,-100,-100,0,0,100,0.00,40.00,0,-999,0,0.00
2013-12-3,45,21,8,-100,-100,-100,0,0,100,0.00,40.00,0,-999,0,0.00
2013-12-4,7,2,-9,-100,-100,-100,0,0,100,0.00,40.00,0,-999,0,0.00
2013-12-5,7,-6,-14,-100,-100,-100,0,0,100,0.00,40.00,0,-999,0,0.00
2013-12-6,-2,-5,-7,-100,-100,-100,0,0,100,0.00,40.00,0,-999,0,0.00
2013-12-7,7,-2,-10,-100,-100,-100,0,0,100,0.00,40.00,0,-999,0,0.00
2013-12-8,7,3,-3,-100,-100,-100,0,0,100,0.00,40.00,0,-999,0,0.00
2013-12-9,17,5,-13,-100,-100,-100,0,0,100,0.00,40.00,0,-999,0,0.00
2013-12-10,28,21,14,-100,-100,-100,0,0,100,0.00,40.00,0,-999,0,0.00
2013-12-11,33,14,-1,-100,-100,-100,0,0,100,0.00,40.00,0,-999,0,0.00
2013-12-12,44,33,11,-100,-100,-100,0,0,100,0.00,40.00,0,-999,0,0.00
2013-12-13,37,28,17,-100,-100,-100,0,0,100,0.00,40.00,0,-999,0,0.00
2013-12-14,36,29,25,-100,-100,-100,0,0,100,0.00,40.00,0,-999,0,0.00
2013-12-15,40,33,28,-100,-100,-100,0,0,100,0.00,40.00,0,-999,0,0.00
2013-12-16,51,45,36,-100,-100,-100,0,0,100,0.00,40.00,0,-999,0,0.00
2013-12-17,52,39,24,-100,-100,-100,0,0,100,0.00,40.00,0,-999,0,0.00
2013-12-18,54,44,34,-100,-100,-100,0,0,100,0.00,40.00,0,-999,0,0.00
2013-12-19,32,21,9,-100,-100,-100,0,0,100,0.00,40.00,0,-999,0,0.00
2013-12-20,28,15,7,-100,-100,-100,0,0,100,0.00,40.00,0,-999,0,0.00
2013-12-21,28,19,10,-100,-100,-100,0,0,100,0.00,40.00,0,-999,0,0.00
2013-12-22,32,21,11,-100,-100,-100,0,0,100,0.00,40.00,0,-999,0,0.00
2013-12-23,18,8,-3,-100,-100,-100,0,0,100,0.00,40.00,0,-999,0,0.00
2013-12-24,39,30,18,-100,-100,-100,0,0,100,0.00,40.00,0,-999,0,0.00
2013-12-25,36,27,16,-100,-100,-100,0,0,100,0.00,40.00,0,-999,0,0.00
2013-12-26,47,34,25,-100,-100,-100,0,0,100,0.00,40.00,0,-999,0,0.00
2013-12-27,54,38,23,-100,-100,-100,0,0,100,0.00,40.00,0,-999,0,0.00
2013-12-28,45,29,10,-100,-100,-100,0,0,100,0.00,40.00,0,-999,0,0.00
2013-12-29,36,20,6,-100,-100,-100,0,0,100,0.00,40.00,0,-999,0,0.00
2013-12-30,39,31,23,-100,-100,-100,0,0,100,0.00,40.00,0,-999,0,0.00
2013-12-31,47,41,32,-100,-100,-100,0,0,100,0.00,40.00,0,-999,0,0.00
2014-1-1,37,27,15,-100,-100,-100,0,0,100,0.00,40.00,0,-999,0,0.00
2014-1-2,32,21,9,-100,-100,-100,0,0,100,0.00,40.00,0,-999,0,0.00